TimeEDT,TemperatureF,Dew PointF,Humidity,Sea Level PressureIn,VisibilityMPH,Wind Direction,Wind SpeedMPH,Gust SpeedMPH,PrecipitationIn,Events,Conditions,WindDirDegrees,DateUTC
12:53 AM,73.0,62.1,68,29.84,10.0,NNW,5.8,-,N/A,,Overcast,330,2013-08-14 04:53:00
1:53 AM,71.1,62.1,73,29.84,10.0,NNW,3.5,-,N/A,,Overcast,330,2013-08-14 05:53:00
2:53 AM,70.0,62.1,76,29.84,10.0,Calm,Calm,-,N/A,,Scattered Clouds,0,2013-08-14 06:53:00
3:53 AM,68.0,61.0,78,29.86,10.0,NNW,4.6,-,N/A,,Scattered Clouds,340,2013-08-14 07:53:00
4:53 AM,66.0,57.9,75,29.88,10.0,North,3.5,-,N/A,,Overcast,10,2013-08-14 08:53:00
5:53 AM,64.0,53.1,67,29.91,10.0,NNW,10.4,21.9,N/A,,Clear,340,2013-08-14 09:53:00
6:53 AM,62.1,48.0,60,29.95,10.0,North,9.2,-,N/A,,Clear,350,2013-08-14 10:53:00
7:53 AM,63.0,44.1,50,29.98,10.0,North,8.1,-,N/A,,Clear,360,2013-08-14 11:53:00
8:53 AM,64.9,44.1,47,30.00,10.0,NNW,8.1,-,N/A,,Clear,330,2013-08-14 12:53:00
9:53 AM,66.0,44.1,45,30.01,10.0,NNW,13.8,19.6,N/A,,Clear,340,2013-08-14 13:53:00
10:53 AM,66.9,45.0,45,30.03,10.0,NNW,9.2,16.1,N/A,,Clear,330,2013-08-14 14:53:00
11:53 AM,70.0,46.0,42,30.03,10.0,Variable,6.9,16.1,N/A,,Clear,0,2013-08-14 15:53:00
12:53 PM,72.0,46.9,41,30.02,10.0,NNE,8.1,-,N/A,,Clear,20,2013-08-14 16:53:00
1:53 PM,73.0,48.0,41,30.01,10.0,NNW,11.5,18.4,N/A,,Clear,330,2013-08-14 17:53:00
2:53 PM,73.0,48.9,42,30.01,10.0,NNE,11.5,18.4,N/A,,Partly Cloudy,20,2013-08-14 18:53:00
3:53 PM,73.9,48.0,40,30.00,10.0,NNE,11.5,18.4,N/A,,Scattered Clouds,20,2013-08-14 19:53:00
4:53 PM,73.9,48.9,41,30.01,10.0,North,11.5,18.4,N/A,,Scattered Clouds,10,2013-08-14 20:53:00
5:53 PM,73.0,48.9,42,30.02,10.0,NNE,8.1,-,N/A,,Clear,20,2013-08-14 21:53:00
6:53 PM,71.1,48.9,45,30.03,10.0,North,6.9,-,N/A,,Clear,350,2013-08-14 22:53:00
7:53 PM,66.0,50.0,56,30.05,10.0,NNW,3.5,-,N/A,,Clear,340,2013-08-14 23:53:00
8:53 PM,62.1,51.1,67,30.08,10.0,NNW,3.5,-,N/A,,Clear,340,2013-08-15 00:53:00
9:53 PM,61.0,50.0,67,30.10,10.0,Calm,Calm,-,N/A,,Clear,0,2013-08-15 01:53:00
10:53 PM,59.0,50.0,72,30.11,10.0,NNW,3.5,-,N/A,,Clear,340,2013-08-15 02:53:00
11:53 PM,57.0,50.0,77,30.13,10.0,North,3.5,-,N/A,,Clear,350,2013-08-15 03:53:00